Time,TemperatureF,DewpointF,PressureIn,WindDirection,WindDirectionDegrees,WindSpeedMPH,WindSpeedGustMPH,Humidity,HourlyPrecipIn,Conditions,Clouds,dailyrainin,SolarRadiationWatts/m^2,SoftwareType,DateUTC
2013-12-30 00:12:00,-10.0,-21.0,-100.00,WNW,290,6.0,7.0,57,0.00,,,0.00,0.000000,,2013-12-30 06:12:00,
2013-12-30 00:23:00,-10.0,-21.0,-100.00,WNW,290,6.0,7.0,57,0.00,,,0.00,0.000000,,2013-12-30 06:23:00,
2013-12-30 00:32:00,-10.0,-21.0,-100.00,WNW,290,6.0,7.0,57,0.00,,,0.00,0.000000,,2013-12-30 06:32:00,
2013-12-30 00:42:00,-10.0,-21.0,-100.00,WNW,290,6.0,7.0,57,0.00,,,0.00,0.000000,,2013-12-30 06:42:00,
2013-12-30 01:11:00,-12.0,-22.0,-100.00,West,276,3.0,8.0,61,0.00,,,0.00,0.000000,,2013-12-30 07:11:00,
2013-12-30 01:21:00,-12.0,-22.0,-100.00,West,276,3.0,8.0,61,0.00,,,0.00,0.000000,,2013-12-30 07:21:00,
2013-12-30 01:32:00,-12.0,-22.0,-100.00,West,276,3.0,8.0,61,0.00,,,0.00,0.000000,,2013-12-30 07:32:00,
2013-12-30 01:42:00,-12.0,-22.0,-100.00,West,276,3.0,8.0,61,0.00,,,0.00,0.000000,,2013-12-30 07:42:00,
2013-12-30 02:11:00,-15.0,-23.0,-100.00,WNW,291,3.0,6.0,65,0.00,,,0.00,0.000000,,2013-12-30 08:11:00,
2013-12-30 02:22:00,-15.0,-23.0,-100.00,WNW,291,3.0,6.0,65,0.00,,,0.00,0.000000,,2013-12-30 08:22:00,
2013-12-30 02:32:00,-15.0,-23.0,-100.00,WNW,291,3.0,6.0,65,0.00,,,0.00,0.000000,,2013-12-30 08:32:00,
2013-12-30 02:42:00,-15.0,-23.0,-100.00,WNW,291,3.0,6.0,65,0.00,,,0.00,0.000000,,2013-12-30 08:42:00,
2013-12-30 03:11:00,-16.0,-24.0,-100.00,WNW,303,3.0,5.0,66,0.00,,,0.00,0.000000,,2013-12-30 09:11:00,
2013-12-30 03:22:00,-16.0,-24.0,-100.00,WNW,303,3.0,5.0,66,0.00,,,0.00,0.000000,,2013-12-30 09:22:00,
2013-12-30 03:33:00,-16.0,-24.0,-100.00,WNW,303,3.0,5.0,66,0.00,,,0.00,0.000000,,2013-12-30 09:33:00,
2013-12-30 03:43:00,-16.0,-24.0,-100.00,WNW,303,3.0,5.0,66,0.00,,,0.00,0.000000,,2013-12-30 09:43:00,
2013-12-30 04:12:00,-18.0,-25.0,-100.00,WNW,286,3.0,5.0,68,0.00,,,0.00,0.000000,,2013-12-30 10:12:00,
2013-12-30 04:23:00,-18.0,-25.0,-100.00,WNW,286,3.0,5.0,68,0.00,,,0.00,0.000000,,2013-12-30 10:23:00,
2013-12-30 04:33:00,-18.0,-25.0,-100.00,WNW,286,3.0,5.0,68,0.00,,,0.00,0.000000,,2013-12-30 10:33:00,
2013-12-30 04:43:00,-18.0,-25.0,-100.00,WNW,286,3.0,5.0,68,0.00,,,0.00,0.000000,,2013-12-30 10:43:00,
2013-12-30 05:12:00,-20.0,-28.0,-100.00,WNW,288,4.0,5.0,65,0.00,,,0.00,0.000000,,2013-12-30 11:12:00,
2013-12-30 05:22:00,-20.0,-28.0,-100.00,WNW,288,4.0,5.0,65,0.00,,,0.00,0.000000,,2013-12-30 11:22:00,
2013-12-30 05:33:00,-20.0,-28.0,-100.00,WNW,288,4.0,5.0,65,0.00,,,0.00,0.000000,,2013-12-30 11:33:00,
2013-12-30 05:43:00,-20.0,-28.0,-100.00,WNW,288,4.0,5.0,65,0.00,,,0.00,0.000000,,2013-12-30 11:43:00,
2013-12-30 06:12:00,-19.0,-27.0,-100.00,SW,219,1.0,4.0,67,0.00,,,0.00,0.000000,,2013-12-30 12:12:00,
2013-12-30 06:22:00,-19.0,-27.0,-100.00,SW,219,1.0,4.0,67,0.00,,,0.00,0.000000,,2013-12-30 12:22:00,
2013-12-30 06:33:00,-19.0,-27.0,-100.00,SW,219,1.0,4.0,67,0.00,,,0.00,0.000000,,2013-12-30 12:33:00,
2013-12-30 06:42:00,-19.0,-27.0,-100.00,SW,219,1.0,4.0,67,0.00,,,0.00,0.000000,,2013-12-30 12:42:00,
2013-12-30 07:11:00,-21.0,-29.0,-100.00,West,275,2.0,3.0,65,0.00,,,0.00,0.000000,,2013-12-30 13:11:00,
2013-12-30 07:22:00,-21.0,-29.0,-100.00,West,275,2.0,3.0,65,0.00,,,0.00,0.000000,,2013-12-30 13:22:00,
2013-12-30 07:32:00,-21.0,-29.0,-100.00,West,275,2.0,3.0,65,0.00,,,0.00,0.000000,,2013-12-30 13:32:00,
2013-12-30 07:42:00,-21.0,-29.0,-100.00,West,275,2.0,3.0,65,0.00,,,0.00,0.000000,,2013-12-30 13:42:00,
2013-12-30 08:12:00,-22.0,-30.0,-100.00,SW,218,3.0,5.0,65,0.00,,,0.00,2.000000,,2013-12-30 14:12:00,
2013-12-30 08:22:00,-22.0,-30.0,-100.00,SW,218,3.0,5.0,65,0.00,,,0.00,2.000000,,2013-12-30 14:22:00,
2013-12-30 08:32:00,-22.0,-30.0,-100.00,SW,218,3.0,5.0,65,0.00,,,0.00,2.000000,,2013-12-30 14:32:00,
2013-12-30 08:42:00,-22.0,-30.0,-100.00,SW,218,3.0,5.0,65,0.00,,,0.00,2.000000,,2013-12-30 14:42:00,
2013-12-30 09:11:00,-16.0,-24.0,-100.00,North,-999,0.0,4.0,65,0.00,,,0.00,41.000000,,2013-12-30 15:11:00,
2013-12-30 09:21:00,-16.0,-24.0,-100.00,North,-999,0.0,4.0,65,0.00,,,0.00,41.000000,,2013-12-30 15:21:00,
2013-12-30 09:33:00,-16.0,-24.0,-100.00,North,-999,0.0,4.0,65,0.00,,,0.00,41.000000,,2013-12-30 15:33:00,
2013-12-30 09:43:00,-16.0,-24.0,-100.00,North,-999,0.0,4.0,65,0.00,,,0.00,41.000000,,2013-12-30 15:43:00,
2013-12-30 10:13:00,-7.0,-20.0,-100.00,West,280,3.0,5.0,53,0.00,,,-99.99,176.000000,,2013-12-30 16:13:00,
2013-12-30 10:23:00,-7.0,-20.0,-100.00,West,280,3.0,5.0,53,0.00,,,-99.99,176.000000,,2013-12-30 16:23:00,
2013-12-30 10:33:00,-7.0,-20.0,-100.00,West,280,3.0,5.0,53,0.00,,,-99.99,176.000000,,2013-12-30 16:33:00,
2013-12-30 10:43:00,-7.0,-20.0,-100.00,West,280,3.0,5.0,53,0.00,,,-99.99,176.000000,,2013-12-30 16:43:00,
2013-12-30 11:12:00,-2.0,-18.0,-100.00,NE,48,2.0,5.0,45,0.00,,,0.00,231.000000,,2013-12-30 17:12:00,
2013-12-30 11:22:00,-2.0,-18.0,-100.00,NE,48,2.0,5.0,45,0.00,,,0.00,231.000000,,2013-12-30 17:22:00,
2013-12-30 11:32:00,-2.0,-18.0,-100.00,NE,48,2.0,5.0,45,0.00,,,0.00,231.000000,,2013-12-30 17:32:00,
2013-12-30 11:43:00,-2.0,-18.0,-100.00,NE,48,2.0,5.0,45,0.00,,,0.00,231.000000,,2013-12-30 17:43:00,
2013-12-30 12:12:00,-1.0,-19.0,-100.00,SW,225,6.0,8.0,40,0.00,,,0.00,256.000000,,2013-12-30 18:12:00,
2013-12-30 12:22:00,-1.0,-19.0,-100.00,SW,225,6.0,8.0,40,0.00,,,0.00,256.000000,,2013-12-30 18:22:00,
2013-12-30 12:32:00,-1.0,-19.0,-100.00,SW,225,6.0,8.0,40,0.00,,,0.00,256.000000,,2013-12-30 18:32:00,
2013-12-30 12:43:00,-1.0,-19.0,-100.00,SW,225,6.0,8.0,40,0.00,,,0.00,256.000000,,2013-12-30 18:43:00,
2013-12-30 13:12:00,1.0,-19.0,-100.00,WSW,255,5.0,9.0,38,0.00,,,0.00,248.000000,,2013-12-30 19:12:00,
2013-12-30 13:22:00,1.0,-19.0,-100.00,WSW,255,5.0,9.0,38,0.00,,,0.00,248.000000,,2013-12-30 19:22:00,
2013-12-30 13:32:00,1.0,-19.0,-100.00,WSW,255,5.0,9.0,38,0.00,,,0.00,248.000000,,2013-12-30 19:32:00,
2013-12-30 13:42:00,1.0,-19.0,-100.00,WSW,255,5.0,9.0,38,0.00,,,0.00,248.000000,,2013-12-30 19:42:00,
2013-12-30 14:11:00,3.0,-19.0,-100.00,West,271,5.0,10.0,34,0.00,,,0.00,302.000000,,2013-12-30 20:11:00,
2013-12-30 14:22:00,3.0,-19.0,-100.00,West,271,5.0,10.0,34,0.00,,,0.00,302.000000,,2013-12-30 20:22:00,
2013-12-30 14:33:00,3.0,-19.0,-100.00,West,271,5.0,10.0,34,0.00,,,0.00,302.000000,,2013-12-30 20:33:00,
2013-12-30 14:42:00,3.0,-19.0,-100.00,West,271,5.0,10.0,34,0.00,,,0.00,302.000000,,2013-12-30 20:42:00,
2013-12-30 15:11:00,3.0,-18.0,-100.00,West,275,3.0,9.0,36,0.00,,,0.00,169.000000,,2013-12-30 21:11:00,
2013-12-30 15:22:00,3.0,-18.0,-100.00,West,275,3.0,9.0,36,0.00,,,0.00,169.000000,,2013-12-30 21:22:00,
2013-12-30 15:33:00,3.0,-18.0,-100.00,West,275,3.0,9.0,36,0.00,,,0.00,169.000000,,2013-12-30 21:33:00,
2013-12-30 15:44:00,3.0,-18.0,-100.00,West,275,3.0,9.0,36,0.00,,,0.00,169.000000,,2013-12-30 21:44:00,
2013-12-30 16:12:00,1.0,-12.0,-100.00,WNW,290,4.0,9.0,52,0.00,,,0.00,61.000000,,2013-12-30 22:12:00,
2013-12-30 16:23:00,1.0,-12.0,-100.00,WNW,290,4.0,9.0,52,0.00,,,0.00,61.000000,,2013-12-30 22:23:00,
2013-12-30 16:33:00,1.0,-12.0,-100.00,WNW,290,4.0,9.0,52,0.00,,,0.00,61.000000,,2013-12-30 22:33:00,
2013-12-30 16:43:00,1.0,-12.0,-100.00,WNW,290,4.0,9.0,52,0.00,,,0.00,61.000000,,2013-12-30 22:43:00,
2013-12-30 17:12:00,0.0,-8.0,-100.00,WSW,243,3.0,6.0,67,0.00,,,0.00,12.000000,,2013-12-30 23:12:00,
2013-12-30 17:22:00,0.0,-8.0,-100.00,WSW,243,3.0,6.0,67,0.00,,,0.00,12.000000,,2013-12-30 23:22:00,
2013-12-30 17:33:00,0.0,-8.0,-100.00,WSW,243,3.0,6.0,67,0.00,,,0.00,12.000000,,2013-12-30 23:33:00,
2013-12-30 17:42:00,0.0,-8.0,-100.00,WSW,243,3.0,6.0,67,0.00,,,0.00,12.000000,,2013-12-30 23:42:00,
2013-12-30 18:12:00,0.0,-7.0,-100.00,WSW,252,2.0,4.0,71,0.00,,,0.00,0.000000,,2013-12-31 00:12:00,
2013-12-30 18:22:00,0.0,-7.0,-100.00,WSW,252,2.0,4.0,71,0.00,,,0.00,0.000000,,2013-12-31 00:22:00,
2013-12-30 18:32:00,0.0,-7.0,-100.00,WSW,252,2.0,4.0,71,0.00,,,0.00,0.000000,,2013-12-31 00:32:00,
2013-12-30 18:42:00,0.0,-7.0,-100.00,WSW,252,2.0,4.0,71,0.00,,,0.00,0.000000,,2013-12-31 00:42:00,
2013-12-30 19:11:00,0.0,-7.0,-100.00,WNW,286,3.0,5.0,73,0.00,,,0.00,0.000000,,2013-12-31 01:11:00,
2013-12-30 19:21:00,0.0,-7.0,-100.00,WNW,286,3.0,5.0,73,0.00,,,0.00,0.000000,,2013-12-31 01:21:00,
2013-12-30 19:32:00,0.0,-7.0,-100.00,WNW,286,3.0,5.0,73,0.00,,,0.00,0.000000,,2013-12-31 01:32:00,
2013-12-30 19:42:00,0.0,-7.0,-100.00,WNW,286,3.0,5.0,73,0.00,,,0.00,0.000000,,2013-12-31 01:42:00,
2013-12-30 20:12:00,0.0,-7.0,-100.00,West,269,4.0,6.0,73,0.00,,,0.00,0.000000,,2013-12-31 02:12:00,
2013-12-30 20:22:00,0.0,-7.0,-100.00,West,269,4.0,6.0,73,0.00,,,0.00,0.000000,,2013-12-31 02:22:00,
2013-12-30 20:32:00,0.0,-7.0,-100.00,West,269,4.0,6.0,73,0.00,,,0.00,0.000000,,2013-12-31 02:32:00,
2013-12-30 20:42:00,0.0,-7.0,-100.00,West,269,4.0,6.0,73,0.00,,,0.00,0.000000,,2013-12-31 02:42:00,
2013-12-30 21:11:00,0.0,-7.0,-100.00,West,278,4.0,7.0,71,0.00,,,0.00,0.000000,,2013-12-31 03:11:00,
2013-12-30 21:22:00,0.0,-7.0,-100.00,West,278,4.0,7.0,71,0.00,,,0.00,0.000000,,2013-12-31 03:22:00,
2013-12-30 21:33:00,0.0,-7.0,-100.00,West,278,4.0,7.0,71,0.00,,,0.00,0.000000,,2013-12-31 03:33:00,
2013-12-30 21:43:00,0.0,-7.0,-100.00,West,278,4.0,7.0,71,0.00,,,0.00,0.000000,,2013-12-31 03:43:00,
2013-12-30 22:13:00,-1.0,-8.0,-100.00,WNW,283,3.0,6.0,73,0.01,,,0.01,0.000000,,2013-12-31 04:13:00,
2013-12-30 22:23:00,-1.0,-8.0,-100.00,WNW,283,3.0,6.0,73,0.01,,,0.01,0.000000,,2013-12-31 04:23:00,
2013-12-30 22:33:00,-1.0,-8.0,-100.00,WNW,283,3.0,6.0,73,0.01,,,0.01,0.000000,,2013-12-31 04:33:00,
2013-12-30 22:42:00,-1.0,-8.0,-100.00,WNW,283,3.0,6.0,73,0.01,,,0.01,0.000000,,2013-12-31 04:42:00,
2013-12-30 23:12:00,-6.0,-12.0,-100.00,West,271,3.0,4.0,75,0.00,,,0.01,0.000000,,2013-12-31 05:12:00,
2013-12-30 23:22:00,-6.0,-12.0,-100.00,West,271,3.0,4.0,75,0.00,,,0.01,0.000000,,2013-12-31 05:22:00,
2013-12-30 23:33:00,-6.0,-12.0,-100.00,West,271,3.0,4.0,75,0.00,,,0.01,0.000000,,2013-12-31 05:33:00,
2013-12-30 23:42:00,-6.0,-12.0,-100.00,West,271,3.0,4.0,75,0.00,,,0.01,0.000000,,2013-12-31 05:42:00,